星链-5653 (STARLINK-5653 )

导读

STARLINK-5653是美国太空探索技术公司(SpaceX)星链互联网星座的一员,于2023年1月26日发射入轨。星链计划旨在搭建全球卫星互联网,为偏远地区等提供网络服务,该卫星的发射进一步扩充了星链星座的在轨规模,提升星座覆盖与服务能力,目前已在轨运行超三年。

基本信息
目录编号:
55345
目录名称:
STARLINK-5653
国际标识:
2023-013Q
轨道中心:
EARTH
卫星名称:
星链-5653
卫星全名:
星链-5653 (STARLINK-5653 )
卫星状态:
在轨 (已飞行1236 天)
发射日期:
2023-01-26 UTC
国别 :
美国 (US)
星等 :
--
轨道信息
数据来源 国际轨道数据 AOE轨道数据
星历时间 2026-06-12T11:18:25+0800
2天前
查看轨道信息
2026-06-11T01:00:00+0800
4天前
查看轨道信息
半长轴 6861.197km 6861.172km
偏心率 0.0001461 0.0002757
轨道倾角 42.998° 42.996°
近地点辐角 258.106° 194.068°
升交点赤经 115.652° 123.736°
平近点角 101.963° 215.843°
近地点 482.057km 481.143km
远地点 484.063km 484.927km
周期 94.267分钟 94.266分钟
每日圈数 15.275766 15.275849
详细信息
固有亮度:
5
最大亮度:
2.5
卫星平台:
Starlink v1.5
覆盖范围:
全球
运营商:
太空探索技术公司
运营商所在国:
美国
制造商(研发单位):
太空探索技术公司
制造商所在国:
美国
使用方式:
暂无
卫星简介
星链(Starlink)计划是由太空探索技术公司(SpaceX)提出的一个巨型低轨卫星互联网星座项目,计划在2019年至2024年间在太空搭建由约1.2万颗卫星组成的“星链”网络,其中1584颗将部署在地球上空550千米处的近地轨道,并从2020年开始工作。该卫星仍在工作。
2D轨道图
3D轨道图
轨道高度分析图
轨道倾角分析图
轨道综合分析图
查看轨道综合分析图